Location: Unnamed
(50.1182°N, 14.4935°E)
Time: 21:29:11
(UTC+02:00)

ISS - Visible Passes

Search period start: 25 September 2020 00:00
Search period end: 05 October 2020 00:00
Orbit: 419 x 420 km, 51.6° (Epoch: 26 September)

Date Brightness Start Highest point End Pass type
(mag) Time Alt. Az. Time Alt. Az. Time Alt. Az.
25 Sep -3.7 19:21:56 10° WSW 19:25:18 89° S 19:28:42 10° ENE visible
25 Sep -3.5 20:58:53 10° W 21:02:08 65° NNW 21:02:08 65° NNW visible
26 Sep -3.5 20:11:27 10° W 20:14:50 65° N 20:16:31 26° ENE visible
26 Sep -1.1 21:48:22 10° WNW 21:49:28 19° WNW 21:49:28 19° WNW visible
27 Sep -3.5 19:24:01 10° W 19:27:23 68° N 19:30:46 10° ENE visible
27 Sep -3.3 21:00:57 10° WNW 21:03:50 61° WNW 21:03:50 61° WNW visible
28 Sep -3.7 20:13:32 10° WNW 20:16:55 72° N 20:18:11 35° E visible
28 Sep -0.8 21:50:26 10° W 21:51:09 15° W 21:51:09 15° W visible
29 Sep -3.5 19:26:05 10° W 19:29:27 66° N 19:32:33 12° E visible
29 Sep -2.7 21:02:57 10° WNW 21:05:30 44° W 21:05:30 44° W visible
30 Sep -3.8 20:15:31 10° WNW 20:18:54 80° SSW 20:19:53 43° ESE visible
30 Sep -0.4 21:52:43 10° W 21:52:51 11° W 21:52:51 11° W visible
01 Oct -3.8 19:28:04 10° WNW 19:31:28 83° NNE 19:34:17 14° ESE visible
01 Oct -1.9 21:05:03 10° W 21:07:15 27° WSW 21:07:15 27° WSW visible
02 Oct -2.9 20:17:30 10° W 20:20:44 43° SSW 20:21:42 33° SSE visible
03 Oct -3.4 19:29:59 10° WNW 19:33:20 60° SSW 19:36:12 13° SE visible
03 Oct -1.1 21:07:40 10° WSW 21:09:10 14° SW 21:09:10 14° SW visible
04 Oct -1.7 20:19:42 10° W 20:22:20 21° SW 20:23:45 17° S visible
